Change the Weather History Date:

Sunday, November 6, 2011

  Actual Average Record
Temperature  
Mean Temperature 51 °F 44 °F  
Max Temperature 65 °F 54 °F 74 °F (1980)
Min Temperature 37 °F 34 °F 14 °F (1991)
Degree Days  
Heating Degree Days 14 21  
Month to date heating degree days 108 118  
Since 1 July heating degree days 611 642  
Cooling Degree Days 0 0  
Month to date cooling degree days 0 0  
Year to date cooling degree days 1111 938  
Growing Degree Days 2 (Base 50)    
Moisture  
Dew Point 43 °F    
Average Humidity 67    
Maximum Humidity 86    
Minimum Humidity 48    
Precipitation  
Precipitation 0.00 in 0.09 in 0.81 in (2000)
Month to date precipitation 1.28 0.55  
Year to date precipitation 29.52 33.87  
Sea Level Pressure  
Sea Level Pressure 29.92 in    
Wind  
Wind Speed 12 mph (SSW)    
Max Wind Speed 29 mph    
Max Gust Speed 36 mph    
Visibility 10 miles    
Events      
T = Trace of Precipitation, MM = Missing Value Source: NWS Daily Summary

Daily Weather History Graph

Daily Weather History Graph

Search for Another Location

Airport or City:

Trip Planner

Search our weather history database for the weather conditions in past years. The results will help you decide how hot, cold, wet, or windy it might be!

Date:

Astronomy

Nov. 06, 2011 Rise Set
Actual Time 6:46 AM CST 4:59 PM CST
Civil Twilight 6:17 AM CST 5:28 PM CST
Nautical Twilight 5:44 AM CST 6:01 PM CST
Astronomical Twilight 5:12 AM CST 6:33 PM CST
Moon 2:45 PM CST (11/6) 2:51 AM CST (11/6)
Length of Visible Light 11h 11m
Length of Day
10h 13m
Waxing Gibbous, 86% of the Moon is Illuminated
Nov 6
Waxing Gibbous
Nov 10
Full
Nov 18
Last Quarter
Nov 25
New
Dec 2
First Quarter

Hourly Weather History & Observations

Time (CST) Temp. Dew Point Humidity Pressure Visibility Wind Dir Wind Speed Gust Speed Precip Events Conditions
12:53 AM 48.9 °F 44.1 °F 83% 29.88 in 8.0 mi South 17.3 mph - N/A   Mostly Cloudy
1:53 AM 48.9 °F 43.0 °F 80% 29.86 in 9.0 mi South 18.4 mph - N/A   Partly Cloudy
1:53 AM 48.9 °F 44.1 °F 83% 29.85 in 8.0 mi South 17.3 mph 24.2 mph N/A   Clear
2:53 AM 48.9 °F 44.1 °F 83% 29.84 in 8.0 mi South 16.1 mph - N/A   Clear
3:53 AM 48.9 °F 44.1 °F 83% 29.83 in 8.0 mi South 16.1 mph - N/A   Clear
4:53 AM 48.9 °F 44.1 °F 83% 29.83 in 8.0 mi South 15.0 mph - N/A   Clear
5:53 AM 48.9 °F 44.1 °F 83% 29.82 in 9.0 mi South 15.0 mph - N/A   Clear
6:53 AM 50.0 °F 45.0 °F 83% 29.83 in 9.0 mi South 13.8 mph - N/A   Clear
7:53 AM 54.0 °F 46.9 °F 77% 29.83 in 10.0 mi South 18.4 mph - N/A   Clear
8:53 AM 57.0 °F 48.0 °F 72% 29.86 in 10.0 mi South 18.4 mph 26.5 mph N/A   Partly Cloudy
9:53 AM 60.1 °F 48.0 °F 64% 29.87 in 10.0 mi SSW 23.0 mph 32.2 mph N/A   Overcast
10:53 AM 60.1 °F 46.9 °F 62% 29.89 in 10.0 mi SW 18.4 mph 31.1 mph N/A   Overcast
11:53 AM 62.1 °F 48.0 °F 60% 29.90 in 10.0 mi SW 17.3 mph - N/A   Overcast
12:53 PM 64.0 °F 46.9 °F 54% 29.89 in 10.0 mi SW 21.9 mph 28.8 mph N/A   Scattered Clouds
1:53 PM 64.9 °F 45.0 °F 48% 29.90 in 10.0 mi SW 16.1 mph 27.6 mph N/A   Clear
2:53 PM 64.0 °F 45.0 °F 50% 29.91 in 10.0 mi WSW 19.6 mph 26.5 mph N/A   Partly Cloudy
3:53 PM 63.0 °F 45.0 °F 52% 29.93 in 10.0 mi WSW 12.7 mph - N/A   Clear
4:53 PM 57.0 °F 42.1 °F 57% 29.96 in 10.0 mi West 8.1 mph - N/A   Clear
5:53 PM 52.0 °F 37.9 °F 59% 30.00 in 10.0 mi WNW 3.5 mph - N/A   Clear
6:53 PM 48.9 °F 37.9 °F 66% 30.02 in 10.0 mi Calm Calm - N/A   Clear
7:53 PM 46.0 °F 36.0 °F 68% 30.04 in 10.0 mi Calm Calm - N/A   Clear
8:53 PM 39.9 °F 34.0 °F 79% 30.06 in 10.0 mi Calm Calm - N/A   Clear
9:53 PM 43.0 °F 37.0 °F 80% 30.09 in 10.0 mi Calm Calm - N/A   Scattered Clouds
10:53 PM 39.0 °F 34.0 °F 82% 30.09 in 10.0 mi Calm Calm - N/A   Partly Cloudy